SXI2614 YPDN-WMKJ

Flight info

Callsign SXI2614
Flight time 4h 15m
Altitude 38000
Route JULIE J61 IKUMA A464 KIKEM M774 JUNHA DCT OMKOM
Aircraft A319/M-L/5444

Departure

Time 2026-04-27 11:44
Airport Darwin International Airport / RAAF Darwin (YPDN)

Arrival

Time 2026-04-27 16:00
Airport Senai International Airport (WMKJ)
Time Latitude Longitude Altitude Speed Heading
2026-04-27 11:11 -12.40777 130.87754 114 ft 0 kts 24°
2026-04-27 11:25 -12.40778 130.87754 114 ft 0 kts 24°
2026-04-27 11:35 -12.40785 130.87751 114 ft 2 kts 24°
2026-04-27 11:35 -12.40801 130.87743 114 ft 3 kts 24°
2026-04-27 11:36 -12.40816 130.87736 114 ft 3 kts 24°
2026-04-27 11:36 -12.40835 130.87734 114 ft 3 kts 340°
2026-04-27 11:36 -12.40850 130.87748 114 ft 3 kts 294°
2026-04-27 11:36 -12.40858 130.87767 114 ft 3 kts 294°
2026-04-27 11:37 -12.40861 130.87774 114 ft 0 kts 294°
2026-04-27 11:39 -12.40855 130.87758 114 ft 5 kts 289°
2026-04-27 11:39 -12.40869 130.87723 114 ft 7 kts 221°
2026-04-27 11:39 -12.40916 130.87728 114 ft 9 kts 156°
2026-04-27 11:40 -12.40989 130.87742 114 ft 12 kts 197°
2026-04-27 11:40 -12.41075 130.87714 114 ft 14 kts 198°
2026-04-27 11:40 -12.41179 130.87680 114 ft 17 kts 198°
2026-04-27 11:40 -12.41297 130.87645 114 ft 19 kts 196°
2026-04-27 11:41 -12.41392 130.87616 114 ft 11 kts 198°
2026-04-27 11:41 -12.41445 130.87555 114 ft 13 kts 244°
2026-04-27 11:41 -12.41459 130.87479 114 ft 11 kts 288°
2026-04-27 11:41 -12.41431 130.87397 114 ft 13 kts 289°
2026-04-27 11:42 -12.41398 130.87299 114 ft 15 kts 289°
2026-04-27 11:42 -12.41361 130.87190 114 ft 17 kts 289°
2026-04-27 11:42 -12.41324 130.87076 114 ft 11 kts 288°
2026-04-27 11:42 -12.41295 130.87008 114 ft 8 kts 332°
2026-04-27 11:43 -12.41235 130.87009 114 ft 11 kts
2026-04-27 11:43 -12.41144 130.87010 114 ft 15 kts
2026-04-27 11:43 -12.41060 130.87012 114 ft 9 kts 10°
2026-04-27 11:43 -12.41050 130.87066 114 ft 6 kts 109°
2026-04-27 11:44 -12.41073 130.87133 114 ft 22 kts 109°
2026-04-27 11:44 -12.41210 130.87532 114 ft 95 kts 109°
2026-04-27 11:44 -12.41517 130.88449 199 ft 167 kts 108°
2026-04-27 11:44 -12.41823 130.89495 1053 ft 146 kts 106°
2026-04-27 11:45 -12.42020 130.90495 1651 ft 142 kts 103°
2026-04-27 11:45 -12.42269 130.91502 2033 ft 155 kts 110°
2026-04-27 11:45 -12.42609 130.92651 2270 ft 183 kts 109°
2026-04-27 11:45 -12.42997 130.93986 2508 ft 210 kts 109°
2026-04-27 11:46 -12.43307 130.95556 2786 ft 240 kts 93°
2026-04-27 11:46 -12.42861 130.97216 3178 ft 249 kts 63°
2026-04-27 11:46 -12.41621 130.98500 3588 ft 265 kts 34°
2026-04-27 11:46 -12.39863 130.99112 4059 ft 270 kts 12°
2026-04-27 11:47 -12.37986 130.99264 4524 ft 269 kts
2026-04-27 11:47 -12.36141 130.99261 4979 ft 267 kts
2026-04-27 11:47 -12.34261 130.99204 5431 ft 272 kts
2026-04-27 11:47 -12.32391 130.98835 5856 ft 280 kts 340°
2026-04-27 11:48 -12.30681 130.97820 6382 ft 285 kts 327°
2026-04-27 11:48 -12.29091 130.96591 6942 ft 287 kts 323°
2026-04-27 11:48 -12.27546 130.95307 7535 ft 286 kts 322°
2026-04-27 11:48 -12.26110 130.93890 8147 ft 289 kts 308°
2026-04-27 11:49 -12.25086 130.92125 8797 ft 290 kts 297°
2026-04-27 11:49 -12.24253 130.90236 9432 ft 292 kts 294°
2026-04-27 11:49 -12.23493 130.88312 10059 ft 292 kts 292°
2026-04-27 11:49 -12.22745 130.86344 10656 ft 301 kts 291°
2026-04-27 11:50 -12.21984 130.84324 11213 ft 308 kts 291°
2026-04-27 11:50 -12.21222 130.82231 11772 ft 319 kts 287°
2026-04-27 11:50 -12.20783 130.80019 12325 ft 325 kts 278°
2026-04-27 11:50 -12.20566 130.77694 12885 ft 333 kts 274°
2026-04-27 11:51 -12.20438 130.75302 13441 ft 340 kts 272°
2026-04-27 11:51 -12.20343 130.72872 13974 ft 346 kts 272°
2026-04-27 11:51 -12.20182 130.67888 14786 ft 355 kts 271°
2026-04-27 11:52 -12.20101 130.65357 15188 ft 357 kts 271°
2026-04-27 11:52 -12.20017 130.62803 15590 ft 360 kts 271°
2026-04-27 11:52 -12.19925 130.60200 15998 ft 373 kts 271°
2026-04-27 11:52 -12.19825 130.57536 16424 ft 377 kts 271°
2026-04-27 11:53 -12.19718 130.54828 16942 ft 384 kts 271°
2026-04-27 11:53 -12.19599 130.52075 17470 ft 390 kts 272°
2026-04-27 11:53 -12.19092 130.49332 17995 ft 397 kts 286°
2026-04-27 11:53 -12.18140 130.46660 18532 ft 403 kts 292°
2026-04-27 11:54 -12.16960 130.44046 19036 ft 407 kts 296°
2026-04-27 11:54 -12.15637 130.41462 19506 ft 411 kts 298°
2026-04-27 11:54 -12.14247 130.38894 19960 ft 415 kts 300°
2026-04-27 11:54 -12.12831 130.36315 20411 ft 418 kts 300°
2026-04-27 11:55 -12.11414 130.33699 20864 ft 422 kts 299°
2026-04-27 11:55 -12.10031 130.31088 21318 ft 424 kts 298°
2026-04-27 11:55 -12.08649 130.28404 21793 ft 428 kts 298°
2026-04-27 11:55 -12.07270 130.25681 22271 ft 432 kts 297°
2026-04-27 11:56 -12.05892 130.22940 22744 ft 435 kts 297°
2026-04-27 11:56 -12.04510 130.20183 23167 ft 438 kts 297°
2026-04-27 11:56 -12.03132 130.17393 23573 ft 440 kts 297°
2026-04-27 11:56 -12.01749 130.14596 23973 ft 442 kts 297°
2026-04-27 11:57 -12.00344 130.11781 24356 ft 448 kts 297°
2026-04-27 11:57 -11.98919 130.08938 24734 ft 451 kts 297°
2026-04-27 11:57 -11.97520 130.06112 25106 ft 453 kts 297°
2026-04-27 11:57 -11.96086 130.03224 25483 ft 455 kts 297°
2026-04-27 11:58 -11.94642 130.00339 25859 ft 459 kts 297°
2026-04-27 11:58 -11.93175 129.97418 26234 ft 463 kts 297°
2026-04-27 11:58 -11.91704 129.94488 26590 ft 462 kts 297°
2026-04-27 11:58 -11.90239 129.91569 26941 ft 461 kts 297°
2026-04-27 11:59 -11.88769 129.88637 27293 ft 465 kts 297°
2026-04-27 11:59 -11.87307 129.85694 27629 ft 465 kts 297°
2026-04-27 11:59 -11.85861 129.82741 27956 ft 464 kts 296°
2026-04-27 11:59 -11.84440 129.79832 28277 ft 463 kts 296°
2026-04-27 12:00 -11.82984 129.76896 28592 ft 465 kts 297°
2026-04-27 12:00 -11.81508 129.73944 28896 ft 468 kts 297°
2026-04-27 12:00 -11.80024 129.70999 29195 ft 467 kts 297°
2026-04-27 12:00 -11.78518 129.68061 29495 ft 466 kts 298°
2026-04-27 12:01 -11.76986 129.65140 29774 ft 468 kts 298°
2026-04-27 12:01 -11.75422 129.62206 30032 ft 471 kts 299°
2026-04-27 12:01 -11.73847 129.59272 30283 ft 470 kts 299°
2026-04-27 12:01 -11.72279 129.56351 30533 ft 469 kts 299°
2026-04-27 12:02 -11.70729 129.53417 30783 ft 468 kts 298°
2026-04-27 12:02 -11.69194 129.50493 31102 ft 467 kts 299°
2026-04-27 12:02 -11.67652 129.47583 31507 ft 466 kts 299°
2026-04-27 12:02 -11.66122 129.44712 31923 ft 464 kts 299°
2026-04-27 12:03 -11.64582 129.41825 32344 ft 463 kts 299°
2026-04-27 12:03 -11.63042 129.38933 32714 ft 463 kts 299°
2026-04-27 12:03 -11.61511 129.36044 33060 ft 463 kts 299°
2026-04-27 12:03 -11.59975 129.33136 33395 ft 463 kts 299°
2026-04-27 12:04 -11.58448 129.30234 33723 ft 462 kts 299°
2026-04-27 12:04 -11.56953 129.27382 34047 ft 461 kts 299°
2026-04-27 12:04 -11.55449 129.24503 34361 ft 457 kts 300°
2026-04-27 12:04 -11.53964 129.21663 34679 ft 449 kts 300°
2026-04-27 12:05 -11.52494 129.18863 34994 ft 448 kts 300°
2026-04-27 12:05 -11.51018 129.16063 35279 ft 449 kts 300°
2026-04-27 12:05 -11.49538 129.13260 35556 ft 449 kts 300°
2026-04-27 12:05 -11.48055 129.10454 35826 ft 449 kts 300°
2026-04-27 12:06 -11.46569 129.07643 36063 ft 450 kts 300°
2026-04-27 12:06 -11.45084 129.04831 36290 ft 451 kts 300°
2026-04-27 12:06 -11.43612 129.02001 36516 ft 451 kts 300°
2026-04-27 12:06 -11.42153 128.99207 36739 ft 451 kts 300°
2026-04-27 12:07 -11.40665 128.96386 36964 ft 450 kts 300°
2026-04-27 12:07 -11.39177 128.93583 37188 ft 449 kts 301°
2026-04-27 12:07 -11.37683 128.90780 37385 ft 451 kts 301°
2026-04-27 12:07 -11.36179 128.87962 37506 ft 454 kts 301°
2026-04-27 12:08 -11.34658 128.85120 37612 ft 457 kts 301°
2026-04-27 12:08 -11.33132 128.82267 37715 ft 460 kts 301°
2026-04-27 12:08 -11.31596 128.79394 37816 ft 462 kts 301°
2026-04-27 12:09 -11.28544 128.73675 37879 ft 462 kts 301°
2026-04-27 12:09 -11.25505 128.67896 37880 ft 462 kts 300°
2026-04-27 12:10 -11.22495 128.62123 37880 ft 461 kts 301°
2026-04-27 12:10 -11.19450 128.56373 37880 ft 461 kts 301°
2026-04-27 12:11 -11.16393 128.50627 37882 ft 461 kts 301°
2026-04-27 12:11 -11.13353 128.44920 37883 ft 461 kts 301°
2026-04-27 12:12 -11.10291 128.39172 37880 ft 461 kts 301°
2026-04-27 12:12 -11.07231 128.33435 37879 ft 461 kts 301°
2026-04-27 12:13 -11.04172 128.27693 37879 ft 461 kts 301°
2026-04-27 12:13 -11.01110 128.21940 37879 ft 461 kts 301°
2026-04-27 12:14 -10.98076 128.16238 37878 ft 461 kts 301°
2026-04-27 12:14 -10.95025 128.10499 37878 ft 461 kts 301°
2026-04-27 12:15 -10.91966 128.04752 37878 ft 461 kts 301°
2026-04-27 12:15 -10.88887 127.99029 37878 ft 461 kts 302°
2026-04-27 12:16 -10.85794 127.93315 37877 ft 461 kts 301°
2026-04-27 12:16 -10.82750 127.87614 37877 ft 461 kts 301°
2026-04-27 12:17 -10.79683 127.81844 37877 ft 461 kts 301°
2026-04-27 12:17 -10.76620 127.76144 37877 ft 461 kts 301°
2026-04-27 12:18 -10.73543 127.70397 37877 ft 461 kts 301°
2026-04-27 12:18 -10.70489 127.64711 37875 ft 461 kts 301°
2026-04-27 12:19 -10.67430 127.58987 37875 ft 461 kts 301°
2026-04-27 12:19 -10.64349 127.53253 37875 ft 461 kts 301°
2026-04-27 12:20 -10.61289 127.47532 37875 ft 461 kts 301°
2026-04-27 12:20 -10.58217 127.41797 37875 ft 461 kts 301°
2026-04-27 12:21 -10.55148 127.36068 37875 ft 461 kts 301°
2026-04-27 12:21 -10.52084 127.30383 37875 ft 461 kts 301°
2026-04-27 12:22 -10.49011 127.24660 37875 ft 461 kts 301°
2026-04-27 12:22 -10.45936 127.18951 37875 ft 461 kts 301°
2026-04-27 12:23 -10.43370 127.14192 37875 ft 461 kts 301°
2026-04-27 12:23 -10.40270 127.08479 37875 ft 461 kts 301°
2026-04-27 12:24 -10.37168 127.02755 37875 ft 463 kts 302°
2026-04-27 12:24 -10.34070 126.97023 37874 ft 462 kts 302°
2026-04-27 12:25 -10.30976 126.91294 37875 ft 462 kts 302°
2026-04-27 12:25 -10.27906 126.85603 37874 ft 462 kts 302°
2026-04-27 12:26 -10.24808 126.79861 37875 ft 462 kts 302°
2026-04-27 12:26 -10.21719 126.74132 37875 ft 462 kts 302°
2026-04-27 12:27 -10.18627 126.68395 37875 ft 462 kts 302°
2026-04-27 12:27 -10.15528 126.62682 37875 ft 462 kts 302°
2026-04-27 12:28 -10.12448 126.56981 37875 ft 462 kts 302°
2026-04-27 12:28 -10.09352 126.51250 37874 ft 462 kts 302°
2026-04-27 12:29 -10.06214 126.45553 37875 ft 462 kts 302°
2026-04-27 12:29 -10.03103 126.39846 37875 ft 462 kts 302°
2026-04-27 12:30 -10.00029 126.34153 37874 ft 462 kts 302°
2026-04-27 12:30 -9.96945 126.28428 37874 ft 462 kts 302°
2026-04-27 12:31 -9.93823 126.22720 37874 ft 462 kts 302°
2026-04-27 12:31 -9.90726 126.16998 37874 ft 462 kts 302°
2026-04-27 12:32 -9.87618 126.11288 37874 ft 462 kts 301°
2026-04-27 12:32 -9.84741 126.05493 37875 ft 463 kts 298°
2026-04-27 12:33 -9.81987 125.99570 37874 ft 464 kts 298°
2026-04-27 12:33 -9.79252 125.93638 37874 ft 464 kts 298°
2026-04-27 12:34 -9.76481 125.87731 37874 ft 464 kts 298°
2026-04-27 12:34 -9.73702 125.81851 37873 ft 463 kts 299°
2026-04-27 12:35 -9.70885 125.75966 37873 ft 463 kts 298°
2026-04-27 12:35 -9.68090 125.70070 37873 ft 464 kts 298°
2026-04-27 12:36 -9.65305 125.64209 37871 ft 463 kts 299°
2026-04-27 12:36 -9.62504 125.58312 37865 ft 464 kts 298°
2026-04-27 12:37 -9.59707 125.52428 37863 ft 464 kts 298°
2026-04-27 12:37 -9.56923 125.46575 37865 ft 463 kts 299°
2026-04-27 12:38 -9.54079 125.40696 37865 ft 469 kts 298°
2026-04-27 12:38 -9.51200 125.34722 37859 ft 471 kts 298°
2026-04-27 12:39 -9.48346 125.28791 37854 ft 470 kts 298°
2026-04-27 12:39 -9.45479 125.22824 37852 ft 470 kts 298°
2026-04-27 12:40 -9.42629 125.16861 37851 ft 470 kts 298°
2026-04-27 12:40 -9.39769 125.10897 37847 ft 470 kts 298°
2026-04-27 12:41 -9.36933 125.04965 37847 ft 470 kts 298°
2026-04-27 12:41 -9.34080 124.99002 37847 ft 470 kts 298°
2026-04-27 12:42 -9.31231 124.93039 37847 ft 470 kts 298°
2026-04-27 12:42 -9.28374 124.87072 37845 ft 470 kts 298°
2026-04-27 12:43 -9.25530 124.81116 37845 ft 470 kts 298°
2026-04-27 12:43 -9.22709 124.75126 37845 ft 471 kts 297°
2026-04-27 12:44 -9.19896 124.69140 37845 ft 470 kts 298°
2026-04-27 12:44 -9.17023 124.63231 37845 ft 468 kts 299°
2026-04-27 12:45 -9.14135 124.57333 37845 ft 468 kts 299°
2026-04-27 12:45 -9.11294 124.51397 37845 ft 468 kts 298°
2026-04-27 12:46 -9.08444 124.45476 37845 ft 468 kts 299°
2026-04-27 12:46 -9.05588 124.39546 37845 ft 468 kts 298°
2026-04-27 12:47 -9.02737 124.33626 37845 ft 468 kts 299°
2026-04-27 12:47 -8.99897 124.27707 37845 ft 468 kts 298°
2026-04-27 12:48 -8.97054 124.21818 37845 ft 468 kts 299°
2026-04-27 12:48 -8.94215 124.15886 37845 ft 468 kts 299°
2026-04-27 12:49 -8.91357 124.09963 37845 ft 468 kts 298°
2026-04-27 12:49 -8.88526 124.04070 37845 ft 468 kts 299°
2026-04-27 12:50 -8.85644 123.98167 37845 ft 468 kts 299°
2026-04-27 12:50 -8.82776 123.92246 37845 ft 468 kts 298°
2026-04-27 12:51 -8.79907 123.86326 37845 ft 468 kts 299°
2026-04-27 12:51 -8.77046 123.80419 37845 ft 468 kts 298°
2026-04-27 12:52 -8.74180 123.74505 37845 ft 468 kts 299°
2026-04-27 12:52 -8.71340 123.68624 37845 ft 468 kts 299°
2026-04-27 12:53 -8.67065 123.59768 37845 ft 467 kts 298°
2026-04-27 12:53 -8.64207 123.53855 37845 ft 467 kts 298°
2026-04-27 12:54 -8.61354 123.47950 37844 ft 467 kts 298°
2026-04-27 12:54 -8.58519 123.42082 37842 ft 467 kts 298°
2026-04-27 12:55 -8.55667 123.36179 37842 ft 467 kts 298°
2026-04-27 12:55 -8.52814 123.30270 37842 ft 467 kts 298°
2026-04-27 12:56 -8.49948 123.24383 37842 ft 467 kts 298°
2026-04-27 12:56 -8.47091 123.18529 37842 ft 467 kts 298°
2026-04-27 12:57 -8.44233 123.12633 37842 ft 467 kts 298°
2026-04-27 12:57 -8.41360 123.06748 37843 ft 467 kts 298°
2026-04-27 12:58 -8.38496 123.00850 37844 ft 467 kts 298°
2026-04-27 12:58 -8.35631 122.94967 37844 ft 467 kts 298°
2026-04-27 12:59 -8.32767 122.89082 37844 ft 467 kts 298°
2026-04-27 12:59 -8.29909 122.83194 37844 ft 467 kts 298°
2026-04-27 13:00 -8.27040 122.77301 37841 ft 467 kts 298°
2026-04-27 13:00 -8.24166 122.71425 37838 ft 467 kts 298°
2026-04-27 13:01 -8.21305 122.65588 37837 ft 467 kts 298°
2026-04-27 13:01 -8.18445 122.59702 37836 ft 467 kts 298°
2026-04-27 13:02 -8.15551 122.53825 37833 ft 467 kts 298°
2026-04-27 13:02 -8.12686 122.47945 37831 ft 467 kts 298°
2026-04-27 13:03 -8.09792 122.42073 37830 ft 467 kts 300°
2026-04-27 13:03 -8.06173 122.36772 37831 ft 455 kts 313°
2026-04-27 13:04 -8.01804 122.32152 37828 ft 455 kts 316°
2026-04-27 13:04 -7.97403 122.27594 37826 ft 455 kts 316°
2026-04-27 13:05 -7.93004 122.22996 37826 ft 455 kts 316°
2026-04-27 13:05 -7.88630 122.18360 37824 ft 456 kts 315°
2026-04-27 13:06 -7.84343 122.13631 37823 ft 456 kts 314°
2026-04-27 13:06 -7.80111 122.08895 37822 ft 456 kts 314°
2026-04-27 13:07 -7.75887 122.04131 37819 ft 454 kts 314°
2026-04-27 13:07 -7.71687 121.99369 37821 ft 454 kts 314°
2026-04-27 13:08 -7.67513 121.94627 37818 ft 454 kts 314°
2026-04-27 13:08 -7.63312 121.89854 37818 ft 454 kts 314°
2026-04-27 13:09 -7.59121 121.85089 37818 ft 455 kts 314°
2026-04-27 13:09 -7.54922 121.80314 37814 ft 454 kts 314°
2026-04-27 13:10 -7.50726 121.75542 37815 ft 455 kts 314°
2026-04-27 13:10 -7.47240 121.71570 37813 ft 455 kts 313°
2026-04-27 13:11 -7.43020 121.65457 37822 ft 458 kts 303°
2026-04-27 13:11 -7.39819 121.59897 37816 ft 459 kts 302°
2026-04-27 13:12 -7.37242 121.55223 37813 ft 459 kts 301°
2026-04-27 13:12 -7.34173 121.49582 37818 ft 459 kts 301°
2026-04-27 13:13 -7.31109 121.43924 37816 ft 459 kts 301°
2026-04-27 13:13 -7.28049 121.38263 37818 ft 459 kts 301°
2026-04-27 13:14 -7.25035 121.32643 37819 ft 460 kts 298°
2026-04-27 13:14 -7.22513 121.26702 37823 ft 462 kts 293°
2026-04-27 13:15 -7.20585 121.20509 37814 ft 464 kts 286°
2026-04-27 13:15 -7.19239 121.14144 37816 ft 464 kts 283°
2026-04-27 13:16 -7.18075 121.07781 37816 ft 465 kts 282°
2026-04-27 13:16 -7.16951 121.01363 37814 ft 465 kts 282°
2026-04-27 13:17 -7.15841 120.94932 37814 ft 465 kts 282°
2026-04-27 13:17 -7.14744 120.88546 37816 ft 465 kts 282°
2026-04-27 13:18 -7.13644 120.82133 37816 ft 465 kts 282°
2026-04-27 13:18 -7.12536 120.75665 37814 ft 465 kts 282°
2026-04-27 13:19 -7.11442 120.69282 37808 ft 465 kts 282°
2026-04-27 13:19 -7.10343 120.62863 37816 ft 465 kts 282°
2026-04-27 13:20 -7.09242 120.56436 37812 ft 465 kts 282°
2026-04-27 13:20 -7.08142 120.50006 37816 ft 465 kts 282°
2026-04-27 13:21 -7.07048 120.43621 37819 ft 466 kts 282°
2026-04-27 13:21 -7.05948 120.37183 37815 ft 465 kts 282°
2026-04-27 13:22 -7.04852 120.30762 37816 ft 465 kts 282°
2026-04-27 13:22 -7.03649 120.24366 37811 ft 464 kts 287°
2026-04-27 13:23 -7.01356 120.18388 37816 ft 460 kts 299°
2026-04-27 13:23 -6.98343 120.12709 37817 ft 459 kts 301°
2026-04-27 13:24 -6.95249 120.07092 37815 ft 459 kts 301°
2026-04-27 13:24 -6.92265 120.01414 37816 ft 459 kts 300°
2026-04-27 13:25 -6.89370 119.95665 37816 ft 460 kts 299°
2026-04-27 13:25 -6.86525 119.89938 37819 ft 460 kts 299°
2026-04-27 13:26 -6.83674 119.84179 37811 ft 460 kts 299°
2026-04-27 13:26 -6.80787 119.78428 37813 ft 461 kts 300°
2026-04-27 13:27 -6.77866 119.72685 37815 ft 461 kts 300°
2026-04-27 13:27 -6.74977 119.66915 37809 ft 461 kts 299°
2026-04-27 13:28 -6.72099 119.61195 37814 ft 461 kts 299°
2026-04-27 13:28 -6.69218 119.55422 37813 ft 461 kts 299°
2026-04-27 13:29 -6.66322 119.49663 37815 ft 461 kts 300°
2026-04-27 13:29 -6.63406 119.43926 37815 ft 461 kts 300°
2026-04-27 13:30 -6.60486 119.38189 37815 ft 461 kts 299°
2026-04-27 13:30 -6.57596 119.32437 37815 ft 461 kts 300°
2026-04-27 13:31 -6.54681 119.26688 37815 ft 461 kts 299°
2026-04-27 13:31 -6.51787 119.20932 37815 ft 461 kts 300°
2026-04-27 13:32 -6.48889 119.15208 37816 ft 461 kts 299°
2026-04-27 13:32 -6.45996 119.09460 37816 ft 461 kts 300°
2026-04-27 13:33 -6.43095 119.03713 37815 ft 461 kts 299°
2026-04-27 13:33 -6.40207 118.97994 37815 ft 461 kts 300°
2026-04-27 13:34 -6.37312 118.92240 37815 ft 461 kts 300°
2026-04-27 13:34 -6.34433 118.86476 37815 ft 461 kts 299°
2026-04-27 13:35 -6.31551 118.80721 37815 ft 461 kts 300°
2026-04-27 13:35 -6.28636 118.74972 37815 ft 461 kts 300°
2026-04-27 13:36 -6.25719 118.69238 37815 ft 461 kts 300°
2026-04-27 13:36 -6.22817 118.63539 37815 ft 461 kts 300°
2026-04-27 13:37 -6.19898 118.57807 37815 ft 461 kts 300°
2026-04-27 13:37 -6.16953 118.52017 37815 ft 471 kts 298°
2026-04-27 13:38 -6.13970 118.46125 37815 ft 476 kts 298°
2026-04-27 13:38 -6.10969 118.40207 37816 ft 478 kts 298°
2026-04-27 13:39 -6.07948 118.34257 37815 ft 478 kts 298°
2026-04-27 13:39 -6.04920 118.28293 37815 ft 478 kts 298°
2026-04-27 13:40 -6.01904 118.22341 37815 ft 478 kts 298°
2026-04-27 13:40 -5.98955 118.16390 37815 ft 478 kts 298°
2026-04-27 13:41 -5.95953 118.10417 37815 ft 478 kts 298°
2026-04-27 13:41 -5.92907 118.04482 37815 ft 478 kts 299°
2026-04-27 13:42 -5.89881 117.98543 37815 ft 478 kts 298°
2026-04-27 13:42 -5.86869 117.92613 37815 ft 478 kts 298°
2026-04-27 13:43 -5.83849 117.86661 37815 ft 478 kts 298°
2026-04-27 13:43 -5.80829 117.80707 37815 ft 478 kts 298°
2026-04-27 13:44 -5.77809 117.74752 37815 ft 478 kts 298°
2026-04-27 13:44 -5.74800 117.68843 37815 ft 478 kts 298°
2026-04-27 13:45 -5.71782 117.62897 37813 ft 478 kts 298°
2026-04-27 13:45 -5.68755 117.56940 37811 ft 478 kts 299°
2026-04-27 13:46 -5.65689 117.51023 37813 ft 478 kts 299°
2026-04-27 13:46 -5.62679 117.45152 37815 ft 470 kts 300°
2026-04-27 13:47 -5.59688 117.39281 37809 ft 472 kts 300°
2026-04-27 13:47 -5.56712 117.33432 37807 ft 472 kts 300°
2026-04-27 13:48 -5.53729 117.27566 37808 ft 472 kts 300°
2026-04-27 13:48 -5.50745 117.21694 37808 ft 472 kts 300°
2026-04-27 13:49 -5.47778 117.15857 37808 ft 472 kts 300°
2026-04-27 13:49 -5.44796 117.09989 37809 ft 472 kts 300°
2026-04-27 13:50 -5.41812 117.04115 37809 ft 472 kts 300°
2026-04-27 13:50 -5.38815 116.98252 37809 ft 472 kts 300°
2026-04-27 13:51 -5.35829 116.92392 37810 ft 472 kts 300°
2026-04-27 13:51 -5.32823 116.86528 37810 ft 472 kts 300°
2026-04-27 13:52 -5.29804 116.80703 37810 ft 472 kts 300°
2026-04-27 13:52 -5.26800 116.74822 37810 ft 472 kts 300°
2026-04-27 13:53 -5.22345 116.66058 37811 ft 472 kts 300°
2026-04-27 13:54 -5.19350 116.60192 37811 ft 472 kts 300°
2026-04-27 13:54 -5.16342 116.54338 37811 ft 472 kts 300°
2026-04-27 13:55 -5.13355 116.48473 37811 ft 472 kts 300°
2026-04-27 13:55 -5.10351 116.42630 37812 ft 472 kts 300°
2026-04-27 13:56 -5.07361 116.36766 37813 ft 472 kts 300°
2026-04-27 13:56 -5.04352 116.30900 37813 ft 472 kts 300°
2026-04-27 13:57 -5.01381 116.25074 37814 ft 472 kts 300°
2026-04-27 13:57 -4.98362 116.19219 37815 ft 472 kts 300°
2026-04-27 13:58 -4.95341 116.13375 37816 ft 472 kts 300°
2026-04-27 13:58 -4.92355 116.07515 37816 ft 472 kts 300°
2026-04-27 13:59 -4.89380 116.01693 37816 ft 472 kts 300°
2026-04-27 13:59 -4.86366 115.95855 37816 ft 472 kts 300°
2026-04-27 14:00 -4.83373 115.89994 37816 ft 472 kts 300°
2026-04-27 14:00 -4.80358 115.84151 37816 ft 472 kts 300°
2026-04-27 14:01 -4.77870 115.79276 37816 ft 472 kts 300°
2026-04-27 14:01 -4.74855 115.73431 37817 ft 472 kts 300°
2026-04-27 14:02 -4.71867 115.67580 37819 ft 472 kts 300°
2026-04-27 14:02 -4.68853 115.61732 37820 ft 472 kts 300°
2026-04-27 14:03 -4.65860 115.55875 37822 ft 472 kts 300°
2026-04-27 14:03 -4.62832 115.50029 37828 ft 472 kts 300°
2026-04-27 14:04 -4.59860 115.44214 37833 ft 472 kts 300°
2026-04-27 14:04 -4.56839 115.38381 37831 ft 472 kts 300°
2026-04-27 14:05 -4.53841 115.32529 37841 ft 472 kts 300°
2026-04-27 14:05 -4.50816 115.26682 37854 ft 472 kts 300°
2026-04-27 14:06 -4.47816 115.20827 37858 ft 472 kts 300°
2026-04-27 14:06 -4.44817 115.15021 37853 ft 472 kts 300°
2026-04-27 14:07 -4.41833 115.09160 37851 ft 472 kts 299°
2026-04-27 14:07 -4.38859 115.03289 37861 ft 472 kts 299°
2026-04-27 14:08 -4.35877 114.97434 37878 ft 472 kts 298°
2026-04-27 14:08 -4.32803 114.91644 37873 ft 473 kts 299°
2026-04-27 14:09 -4.29670 114.85854 37870 ft 473 kts 299°
2026-04-27 14:09 -4.26523 114.80068 37875 ft 473 kts 299°
2026-04-27 14:10 -4.23370 114.74279 37877 ft 473 kts 299°
2026-04-27 14:10 -4.20217 114.68492 37877 ft 473 kts 299°
2026-04-27 14:11 -4.17069 114.62713 37878 ft 473 kts 299°
2026-04-27 14:11 -4.13937 114.56962 37876 ft 473 kts 299°
2026-04-27 14:12 -4.10777 114.51160 37877 ft 473 kts 299°
2026-04-27 14:12 -4.07627 114.45376 37874 ft 473 kts 299°
2026-04-27 14:13 -4.05241 114.39249 37874 ft 474 kts 285°
2026-04-27 14:13 -4.03885 114.32858 37877 ft 467 kts 278°
2026-04-27 14:14 -4.03293 114.26398 37879 ft 469 kts 274°
2026-04-27 14:14 -4.02981 114.19871 37869 ft 469 kts 273°
2026-04-27 14:15 -4.02749 114.13332 37866 ft 469 kts 272°
2026-04-27 14:15 -4.02539 114.06806 37865 ft 469 kts 272°
2026-04-27 14:16 -4.02336 114.00269 37862 ft 469 kts 272°
2026-04-27 14:16 -4.02136 113.93777 37856 ft 469 kts 272°
2026-04-27 14:17 -4.01935 113.87233 37857 ft 469 kts 272°
2026-04-27 14:17 -4.01736 113.80702 37858 ft 469 kts 272°
2026-04-27 14:18 -4.01535 113.74214 37853 ft 469 kts 273°
2026-04-27 14:18 -4.01065 113.67699 37853 ft 469 kts 276°
2026-04-27 14:19 -4.00393 113.61202 37855 ft 468 kts 277°
2026-04-27 14:19 -3.99649 113.54719 37855 ft 468 kts 278°
2026-04-27 14:20 -3.98589 113.48280 37853 ft 468 kts 281°
2026-04-27 14:20 -3.97367 113.41904 37853 ft 468 kts 282°
2026-04-27 14:21 -3.96093 113.35510 37856 ft 468 kts 282°
2026-04-27 14:21 -3.94805 113.29115 37854 ft 468 kts 282°
2026-04-27 14:22 -3.93514 113.22720 37853 ft 468 kts 283°
2026-04-27 14:22 -3.91800 113.16438 37858 ft 467 kts 289°
2026-04-27 14:23 -3.89704 113.10281 37858 ft 467 kts 290°
2026-04-27 14:23 -3.87515 113.04198 37855 ft 467 kts 291°
2026-04-27 14:24 -3.85285 112.98090 37847 ft 467 kts 291°
2026-04-27 14:24 -3.83047 112.91984 37810 ft 467 kts 291°
2026-04-27 14:25 -3.80804 112.85871 37799 ft 467 kts 291°
2026-04-27 14:25 -3.78945 112.80806 37800 ft 467 kts 291°
2026-04-27 14:26 -3.76340 112.73707 37806 ft 466 kts 291°
2026-04-27 14:26 -3.74063 112.67606 37801 ft 468 kts 290°
2026-04-27 14:27 -3.71685 112.61544 37800 ft 468 kts 292°
2026-04-27 14:27 -3.68990 112.55610 37803 ft 468 kts 295°
2026-04-27 14:28 -3.66133 112.49756 37797 ft 468 kts 296°
2026-04-27 14:28 -3.63263 112.43948 37792 ft 468 kts 296°
2026-04-27 14:29 -3.60356 112.38109 37792 ft 468 kts 297°
2026-04-27 14:29 -3.57190 112.32413 37794 ft 468 kts 300°
2026-04-27 14:30 -3.53883 112.26829 37793 ft 468 kts 301°
2026-04-27 14:30 -3.50523 112.21253 37791 ft 468 kts 301°
2026-04-27 14:31 -3.47146 112.15675 37790 ft 468 kts 301°
2026-04-27 14:31 -3.43764 112.10096 37790 ft 468 kts 301°
2026-04-27 14:32 -3.40390 112.04530 37790 ft 468 kts 301°
2026-04-27 14:32 -3.37010 111.98955 37789 ft 468 kts 301°
2026-04-27 14:33 -3.33655 111.93421 37789 ft 468 kts 301°
2026-04-27 14:33 -3.30282 111.87855 37788 ft 468 kts 301°
2026-04-27 14:34 -3.26901 111.82276 37788 ft 468 kts 301°
2026-04-27 14:34 -3.23527 111.76708 37788 ft 468 kts 301°
2026-04-27 14:35 -3.20147 111.71128 37787 ft 468 kts 301°
2026-04-27 14:35 -3.16769 111.65551 37788 ft 468 kts 301°
2026-04-27 14:36 -3.13413 111.60010 37787 ft 468 kts 301°
2026-04-27 14:36 -3.10041 111.54441 37786 ft 468 kts 301°
2026-04-27 14:37 -3.06659 111.48859 37786 ft 468 kts 301°
2026-04-27 14:37 -3.03283 111.43287 37786 ft 468 kts 301°
2026-04-27 14:38 -2.99911 111.37720 37786 ft 468 kts 301°
2026-04-27 14:38 -2.96531 111.32142 37786 ft 468 kts 301°
2026-04-27 14:39 -2.93180 111.26609 37786 ft 466 kts 301°
2026-04-27 14:39 -2.89825 111.21095 37786 ft 463 kts 301°
2026-04-27 14:40 -2.86456 111.15586 37786 ft 464 kts 301°
2026-04-27 14:40 -2.83090 111.10088 37786 ft 464 kts 301°
2026-04-27 14:41 -2.79723 111.04589 37786 ft 464 kts 301°
2026-04-27 14:41 -2.76373 110.99120 37786 ft 464 kts 301°
2026-04-27 14:42 -2.73002 110.93613 37786 ft 464 kts 301°
2026-04-27 14:42 -2.69631 110.88107 37786 ft 464 kts 301°
2026-04-27 14:43 -2.66341 110.82562 37786 ft 463 kts 299°
2026-04-27 14:43 -2.63194 110.76924 37786 ft 463 kts 298°
2026-04-27 14:44 -2.60087 110.71272 37786 ft 463 kts 298°
2026-04-27 14:44 -2.56955 110.65671 37786 ft 464 kts 299°
2026-04-27 14:45 -2.53783 110.60044 37786 ft 464 kts 299°
2026-04-27 14:45 -2.50611 110.54428 37786 ft 464 kts 299°
2026-04-27 14:46 -2.47433 110.48805 37786 ft 464 kts 299°
2026-04-27 14:46 -2.44263 110.43194 37786 ft 464 kts 299°
2026-04-27 14:47 -2.41100 110.37596 37785 ft 469 kts 299°
2026-04-27 14:47 -2.37906 110.31885 37786 ft 470 kts 300°
2026-04-27 14:48 -2.34685 110.26185 37786 ft 470 kts 300°
2026-04-27 14:48 -2.30421 110.18577 37786 ft 470 kts 300°
2026-04-27 14:49 -2.27195 110.12883 37787 ft 471 kts 300°
2026-04-27 14:49 -2.23957 110.07193 37787 ft 471 kts 300°
2026-04-27 14:50 -2.20775 110.01522 37787 ft 470 kts 300°
2026-04-27 14:50 -2.17540 109.95817 37787 ft 470 kts 300°
2026-04-27 14:51 -2.14337 109.90118 37787 ft 471 kts 300°
2026-04-27 14:51 -2.11105 109.84412 37787 ft 471 kts 300°
2026-04-27 14:52 -2.07872 109.78720 37786 ft 470 kts 303°
2026-04-27 14:52 -2.04140 109.73346 37791 ft 470 kts 304°
2026-04-27 14:53 -2.00628 109.67879 37788 ft 470 kts 302°
2026-04-27 14:53 -1.97140 109.62331 37788 ft 470 kts 303°
2026-04-27 14:54 -1.93616 109.56819 37788 ft 470 kts 303°
2026-04-27 14:54 -1.90026 109.51341 37790 ft 470 kts 304°
2026-04-27 14:55 -1.86455 109.45907 37791 ft 470 kts 303°
2026-04-27 14:55 -1.82890 109.40405 37796 ft 470 kts 303°
2026-04-27 14:56 -1.79296 109.34922 37797 ft 470 kts 303°
2026-04-27 14:56 -1.75735 109.29437 37796 ft 470 kts 303°
2026-04-27 14:57 -1.72178 109.24000 37800 ft 470 kts 303°
2026-04-27 14:57 -1.68617 109.18527 37804 ft 470 kts 303°
2026-04-27 14:58 -1.65049 109.13042 37805 ft 470 kts 303°
2026-04-27 14:58 -1.61457 109.07575 37804 ft 470 kts 303°
2026-04-27 14:59 -1.57898 109.02101 37804 ft 470 kts 303°
2026-04-27 14:59 -1.54314 108.96634 37809 ft 470 kts 303°
2026-04-27 15:00 -1.50748 108.91148 37811 ft 470 kts 303°
2026-04-27 15:00 -1.47172 108.85691 37812 ft 464 kts 303°
2026-04-27 15:01 -1.43704 108.80355 37810 ft 456 kts 303°
2026-04-27 15:01 -1.40244 108.75058 37810 ft 455 kts 303°
2026-04-27 15:02 -1.36872 108.69687 37817 ft 456 kts 302°
2026-04-27 15:02 -1.33507 108.64316 37817 ft 456 kts 303°
2026-04-27 15:03 -1.30095 108.59020 37815 ft 456 kts 303°
2026-04-27 15:03 -1.26632 108.53721 37814 ft 456 kts 304°
2026-04-27 15:04 -1.23156 108.48421 37818 ft 455 kts 304°
2026-04-27 15:04 -1.19668 108.43105 37820 ft 462 kts 304°
2026-04-27 15:05 -1.16135 108.37677 37821 ft 468 kts 304°
2026-04-27 15:05 -1.12582 108.32232 37820 ft 467 kts 304°
2026-04-27 15:06 -1.09025 108.26786 37821 ft 467 kts 304°
2026-04-27 15:06 -1.05475 108.21351 37824 ft 467 kts 304°
2026-04-27 15:07 -1.01947 108.15949 37827 ft 467 kts 304°
2026-04-27 15:07 -0.98398 108.10515 37826 ft 467 kts 304°
2026-04-27 15:08 -0.94847 108.05075 37826 ft 467 kts 304°
2026-04-27 15:08 -0.91302 107.99629 37827 ft 467 kts 304°
2026-04-27 15:09 -0.87759 107.94191 37827 ft 467 kts 304°
2026-04-27 15:09 -0.84239 107.88795 37827 ft 467 kts 304°
2026-04-27 15:10 -0.80682 107.83338 37827 ft 467 kts 304°
2026-04-27 15:10 -0.77160 107.77931 37827 ft 467 kts 304°
2026-04-27 15:11 -0.73619 107.72497 37827 ft 467 kts 304°
2026-04-27 15:11 -0.70068 107.67048 37826 ft 467 kts 304°
2026-04-27 15:12 -0.66527 107.61610 37827 ft 467 kts 304°
2026-04-27 15:12 -0.63002 107.56169 37826 ft 466 kts 303°
2026-04-27 15:13 -0.59509 107.50726 37826 ft 466 kts 303°
2026-04-27 15:13 -0.55972 107.45300 37826 ft 466 kts 303°
2026-04-27 15:14 -0.52448 107.39910 37824 ft 466 kts 303°
2026-04-27 15:14 -0.48919 107.34478 37826 ft 466 kts 303°
2026-04-27 15:15 -0.45382 107.29053 37824 ft 466 kts 303°
2026-04-27 15:15 -0.41853 107.23619 37824 ft 466 kts 303°
2026-04-27 15:16 -0.38302 107.18206 37823 ft 466 kts 303°
2026-04-27 15:16 -0.34781 107.12777 37823 ft 466 kts 303°
2026-04-27 15:17 -0.31234 107.07354 37824 ft 466 kts 303°
2026-04-27 15:17 -0.27703 107.01923 37823 ft 466 kts 303°
2026-04-27 15:18 -0.24170 106.96502 37823 ft 466 kts 303°
2026-04-27 15:18 -0.20646 106.91107 37822 ft 466 kts 303°
2026-04-27 15:19 -0.17122 106.85682 37822 ft 466 kts 303°
2026-04-27 15:19 -0.13573 106.80249 37764 ft 466 kts 303°
2026-04-27 15:20 -0.11811 106.77531 37651 ft 467 kts 303°
2026-04-27 15:20 -0.10034 106.74815 37500 ft 467 kts 303°
2026-04-27 15:20 -0.08258 106.72096 37271 ft 467 kts 303°
2026-04-27 15:20 -0.06492 106.69372 37025 ft 467 kts 303°
2026-04-27 15:21 -0.04716 106.66643 36776 ft 468 kts 303°
2026-04-27 15:21 -0.02948 106.63903 36526 ft 469 kts 303°
2026-04-27 15:21 -0.01170 106.61169 36276 ft 469 kts 303°
2026-04-27 15:21 0.00624 106.58433 36026 ft 470 kts 303°
2026-04-27 15:22 0.02394 106.55742 35781 ft 470 kts 303°
2026-04-27 15:22 0.04187 106.53002 35531 ft 470 kts 303°
2026-04-27 15:22 0.05962 106.50256 35281 ft 471 kts 303°
2026-04-27 15:22 0.07740 106.47509 35032 ft 472 kts 303°
2026-04-27 15:23 0.09535 106.44765 34783 ft 472 kts 303°
2026-04-27 15:23 0.11324 106.42026 34534 ft 472 kts 303°
2026-04-27 15:23 0.13114 106.39259 34284 ft 473 kts 303°
2026-04-27 15:23 0.14903 106.36508 34034 ft 473 kts 303°
2026-04-27 15:24 0.16704 106.33757 33785 ft 472 kts 303°
2026-04-27 15:24 0.18497 106.30994 33535 ft 473 kts 303°
2026-04-27 15:24 0.20291 106.28232 33286 ft 474 kts 303°
2026-04-27 15:24 0.22098 106.25470 33036 ft 473 kts 303°
2026-04-27 15:25 0.23868 106.22743 32789 ft 474 kts 303°
2026-04-27 15:25 0.25666 106.19980 32540 ft 475 kts 303°
2026-04-27 15:25 0.27470 106.17216 32291 ft 476 kts 303°
2026-04-27 15:25 0.29271 106.14444 32050 ft 475 kts 303°
2026-04-27 15:26 0.31076 106.11678 31899 ft 475 kts 303°
2026-04-27 15:26 0.32880 106.08904 31828 ft 475 kts 303°
2026-04-27 15:26 0.36487 106.03382 31813 ft 475 kts 303°
2026-04-27 15:27 0.40090 105.97841 31813 ft 475 kts 303°
2026-04-27 15:27 0.43707 105.92303 31611 ft 477 kts 303°
2026-04-27 15:28 0.45513 105.89525 31327 ft 475 kts 303°
2026-04-27 15:28 0.47316 105.86764 31029 ft 472 kts 303°
2026-04-27 15:28 0.49103 105.84027 30729 ft 470 kts 303°
2026-04-27 15:28 0.50873 105.81288 30428 ft 468 kts 303°
2026-04-27 15:29 0.52602 105.78596 30132 ft 466 kts 303°
2026-04-27 15:29 0.54342 105.75878 29943 ft 462 kts 302°
2026-04-27 15:29 0.57798 105.70466 29811 ft 462 kts 302°
2026-04-27 15:30 0.61254 105.65044 29804 ft 462 kts 302°
2026-04-27 15:30 0.64713 105.59615 29805 ft 462 kts 302°
2026-04-27 15:31 0.68166 105.54193 29806 ft 462 kts 302°
2026-04-27 15:31 0.71638 105.48737 29804 ft 469 kts 302°
2026-04-27 15:32 0.75125 105.43241 29794 ft 468 kts 302°
2026-04-27 15:32 0.78587 105.37773 29792 ft 468 kts 302°
2026-04-27 15:33 0.82069 105.32267 29477 ft 467 kts 302°
2026-04-27 15:33 0.83215 105.30451 29299 ft 465 kts 302°
2026-04-27 15:33 0.84933 105.27721 29025 ft 462 kts 302°
2026-04-27 15:34 0.86636 105.25005 28750 ft 459 kts 302°
2026-04-27 15:34 0.88325 105.22301 28453 ft 456 kts 302°
2026-04-27 15:34 0.89997 105.19616 28133 ft 453 kts 302°
2026-04-27 15:34 0.91656 105.16942 27808 ft 451 kts 302°
2026-04-27 15:35 0.93296 105.14269 27482 ft 449 kts 301°
2026-04-27 15:35 0.94852 105.11578 27157 ft 447 kts 301°
2026-04-27 15:35 0.96454 105.08923 26832 ft 445 kts 302°
2026-04-27 15:35 0.98069 105.06332 26510 ft 443 kts 303°
2026-04-27 15:36 0.99737 105.03701 26179 ft 440 kts 303°
2026-04-27 15:36 1.01362 105.01165 25858 ft 438 kts 303°
2026-04-27 15:36 1.03009 104.98608 25532 ft 436 kts 303°
2026-04-27 15:36 1.04649 104.96071 25207 ft 434 kts 303°
2026-04-27 15:37 1.06285 104.93544 24881 ft 432 kts 303°
2026-04-27 15:37 1.07920 104.91023 24555 ft 430 kts 303°
2026-04-27 15:37 1.09542 104.88523 24229 ft 427 kts 303°
2026-04-27 15:37 1.11155 104.86035 23904 ft 426 kts 303°
2026-04-27 15:38 1.12758 104.83554 23578 ft 424 kts 303°
2026-04-27 15:38 1.14272 104.81033 23252 ft 422 kts 300°
2026-04-27 15:38 1.15682 104.78477 22928 ft 420 kts 299°
2026-04-27 15:38 1.17041 104.75900 22602 ft 418 kts 298°
2026-04-27 15:39 1.18367 104.73325 22277 ft 416 kts 298°
2026-04-27 15:39 1.19659 104.70782 21955 ft 414 kts 297°
2026-04-27 15:39 1.20951 104.68220 21629 ft 411 kts 297°
2026-04-27 15:39 1.22228 104.65679 21304 ft 408 kts 297°
2026-04-27 15:40 1.23497 104.63150 20978 ft 405 kts 297°
2026-04-27 15:40 1.24758 104.60636 20652 ft 403 kts 297°
2026-04-27 15:40 1.26010 104.58143 20327 ft 400 kts 297°
2026-04-27 15:40 1.27256 104.55662 20001 ft 398 kts 297°
2026-04-27 15:41 1.28481 104.53227 19673 ft 385 kts 297°
2026-04-27 15:41 1.29662 104.50881 19348 ft 379 kts 297°
2026-04-27 15:41 1.30847 104.48529 18936 ft 378 kts 297°
2026-04-27 15:41 1.32024 104.46198 18379 ft 374 kts 297°
2026-04-27 15:42 1.33196 104.43884 17802 ft 368 kts 297°
2026-04-27 15:42 1.34340 104.41639 17228 ft 358 kts 297°
2026-04-27 15:42 1.35461 104.39451 16690 ft 349 kts 297°
2026-04-27 15:42 1.36570 104.37291 16165 ft 350 kts 297°
2026-04-27 15:43 1.37681 104.35133 15640 ft 348 kts 297°
2026-04-27 15:43 1.38790 104.32985 15112 ft 345 kts 297°
2026-04-27 15:43 1.39871 104.30895 14595 ft 342 kts 297°
2026-04-27 15:43 1.40963 104.28788 14069 ft 339 kts 297°
2026-04-27 15:44 1.42047 104.26699 13542 ft 337 kts 297°
2026-04-27 15:44 1.43119 104.24632 13018 ft 333 kts 297°
2026-04-27 15:44 1.44175 104.22597 12490 ft 327 kts 297°
2026-04-27 15:44 1.45208 104.20604 12019 ft 319 kts 297°
2026-04-27 15:45 1.46214 104.18663 11709 ft 308 kts 297°
2026-04-27 15:45 1.47186 104.16786 11406 ft 302 kts 297°
2026-04-27 15:45 1.48153 104.14920 11103 ft 301 kts 297°
2026-04-27 15:45 1.49116 104.13060 10807 ft 301 kts 297°
2026-04-27 15:46 1.50074 104.11209 10504 ft 299 kts 297°
2026-04-27 15:46 1.51029 104.09363 10220 ft 298 kts 297°
2026-04-27 15:46 1.51979 104.07525 10085 ft 298 kts 297°
2026-04-27 15:46 1.52927 104.05691 10029 ft 298 kts 297°
2026-04-27 15:47 1.53881 104.03848 10009 ft 297 kts 297°
2026-04-27 15:47 1.54831 104.02010 10005 ft 297 kts 297°
2026-04-27 15:47 1.55770 104.00197 9996 ft 298 kts 297°
2026-04-27 15:47 1.56721 103.98359 9999 ft 297 kts 297°
2026-04-27 15:48 1.57776 103.96584 9957 ft 297 kts 303°
2026-04-27 15:48 1.58951 103.94892 9629 ft 294 kts 306°
2026-04-27 15:48 1.60184 103.93290 9297 ft 288 kts 310°
2026-04-27 15:49 1.62840 103.90391 8646 ft 277 kts 314°
2026-04-27 15:49 1.64168 103.89003 8343 ft 274 kts 314°
2026-04-27 15:49 1.65469 103.87649 8083 ft 267 kts 314°
2026-04-27 15:49 1.66750 103.86318 7822 ft 263 kts 314°
2026-04-27 15:50 1.67995 103.85022 7573 ft 260 kts 314°
2026-04-27 15:50 1.69252 103.83712 7320 ft 257 kts 314°
2026-04-27 15:50 1.70475 103.82436 7074 ft 257 kts 314°
2026-04-27 15:50 1.71704 103.81151 6818 ft 254 kts 314°
2026-04-27 15:51 1.72914 103.79884 6570 ft 251 kts 314°
2026-04-27 15:51 1.74115 103.78624 6347 ft 248 kts 314°
2026-04-27 15:51 1.75300 103.77380 6106 ft 247 kts 314°
2026-04-27 15:51 1.76488 103.76133 5857 ft 248 kts 314°
2026-04-27 15:52 1.77674 103.74885 5605 ft 246 kts 314°
2026-04-27 15:52 1.78846 103.73649 5351 ft 243 kts 314°
2026-04-27 15:52 1.79999 103.72428 5096 ft 240 kts 314°
2026-04-27 15:52 1.81140 103.71219 4846 ft 237 kts 314°
2026-04-27 15:53 1.82266 103.70023 4595 ft 236 kts 314°
2026-04-27 15:53 1.83371 103.68852 4346 ft 234 kts 314°
2026-04-27 15:53 1.84482 103.67670 4096 ft 232 kts 314°
2026-04-27 15:53 1.85584 103.66498 3886 ft 229 kts 314°
2026-04-27 15:54 1.86568 103.65256 3652 ft 229 kts 298°
2026-04-27 15:54 1.86807 103.63776 3562 ft 209 kts 266°
2026-04-27 15:54 1.86205 103.62523 3341 ft 198 kts 229°
2026-04-27 15:54 1.85049 103.61859 3203 ft 192 kts 200°
2026-04-27 15:55 1.83773 103.61437 3079 ft 193 kts 195°
2026-04-27 15:55 1.82928 103.61172 3008 ft 192 kts 195°
2026-04-27 15:55 1.81211 103.60637 2979 ft 193 kts 195°
2026-04-27 15:55 1.79929 103.60256 2797 ft 193 kts 193°
2026-04-27 15:56 1.78667 103.60395 2558 ft 174 kts 158°
2026-04-27 15:56 1.77674 103.61016 2366 ft 168 kts 144°
2026-04-27 15:56 1.76695 103.61660 2159 ft 168 kts 147°
2026-04-27 15:56 1.75651 103.62200 2030 ft 168 kts 154°
2026-04-27 15:57 1.74567 103.62641 1982 ft 168 kts 159°
2026-04-27 15:57 1.73454 103.63030 2062 ft 171 kts 161°
2026-04-27 15:57 1.72326 103.63418 1935 ft 171 kts 160°
2026-04-27 15:57 1.71213 103.63830 1675 ft 172 kts 159°
2026-04-27 15:58 1.70125 103.64261 1328 ft 161 kts 157°
2026-04-27 15:58 1.69154 103.64657 1082 ft 142 kts 158°
2026-04-27 15:58 1.68318 103.65099 880 ft 136 kts 155°
2026-04-27 15:58 1.67463 103.65488 648 ft 136 kts 158°
2026-04-27 15:59 1.66551 103.65833 356 ft 141 kts 159°
2026-04-27 15:59 1.65657 103.66173 193 ft 136 kts 159°
2026-04-27 15:59 1.64805 103.66497 133 ft 118 kts 160°
2026-04-27 15:59 1.64252 103.66692 132 ft 57 kts 160°
2026-04-27 16:00 1.64003 103.66780 132 ft 35 kts 160°
2026-04-27 16:00 1.63854 103.66835 132 ft 29 kts 159°
2026-04-27 16:00 1.63715 103.66892 132 ft 15 kts 143°
2026-04-27 16:00 1.63669 103.66926 132 ft 10 kts 146°
2026-04-27 16:01 1.63660 103.66918 132 ft 4 kts 304°
2026-04-27 16:01 1.63703 103.66901 132 ft 10 kts 340°
2026-04-27 16:01 1.63785 103.66871 132 ft 15 kts 340°
2026-04-27 16:01 1.63884 103.66835 132 ft 7 kts 340°
2026-04-27 16:02 1.63953 103.66810 132 ft 14 kts 340°
2026-04-27 16:02 1.64063 103.66769 132 ft 19 kts 340°
2026-04-27 16:02 1.64199 103.66719 132 ft 23 kts 339°
2026-04-27 16:02 1.64343 103.66665 132 ft 14 kts 339°
2026-04-27 16:03 1.64415 103.66638 132 ft 11 kts 337°
2026-04-27 16:03 1.64429 103.66576 132 ft 11 kts 250°
2026-04-27 16:03 1.64397 103.66487 132 ft 14 kts 253°
2026-04-27 16:03 1.64374 103.66410 132 ft 11 kts 253°
2026-04-27 16:04 1.64318 103.66376 132 ft 11 kts 171°
2026-04-27 16:04 1.64285 103.66352 132 ft 4 kts 248°
2026-04-27 16:04 1.64272 103.66319 132 ft 5 kts 248°
2026-04-27 16:04 1.64270 103.66316 132 ft 0 kts 248°